• Processing (Info)

  • MPEC 2016-B04 : 2016 AZ165

    The following Minor Planet Electronic Circular may be linked-to from your own Web pages, but must not otherwise be redistributed electronically.

    A form allowing access to any MPEC is at the bottom of this page.


    Read MPEC 2016-B03 Read MPEC 2016-B05


    M.P.E.C. 2016-B04                                Issued 2016 Jan. 16, 16:26 UT
    
         The Minor Planet Electronic Circulars contain information on unusual
             minor planets and routine data on comets.  They are published
        on behalf of Division F of the International Astronomical Union by the
              Minor Planet Center, Smithsonian Astrophysical Observatory,
                              Cambridge, MA 02138, U.S.A.
    
                 Prepared using the Tamkin Foundation Computer Network
    
                                  MPC@CFA.HARVARD.EDU
                URL https://www.minorplanetcenter.net/    ISSN 1523-6714
    
                                      2016 AZ165
    
    Observations:
         K16AG5Z* C2016 01 13.27207 07 13 21.05 +21 07 50.4          21.1 VqEB004G96
         K16AG5Z  C2016 01 13.27816 07 13 20.14 +21 08 03.7          20.9 VqEB004G96
         K16AG5Z  C2016 01 13.28425 07 13 19.30 +21 08 16.9          20.7 VqEB004G96
         K16AG5Z  C2016 01 13.29034 07 13 18.45 +21 08 30.8          21.0 VqEB004G96
         K16AG5Z  C2016 01 13.33191807 13 12.42 +21 10 01.4          21.5 VtEB004H01
         K16AG5Z  C2016 01 13.33525207 13 11.93 +21 10 08.9          21.7 VtEB004H01
         K16AG5Z  C2016 01 13.34806207 13 10.10 +21 10 37.0          21.2 VtEB004H01
         K16AG5Z KC2016 01 13.34898 07 13 10.04 +21 10 39.4          21.0 RoEB004291
         K16AG5Z KC2016 01 13.35045 07 13 09.80 +21 10 43.2          21.0 RoEB004291
         K16AG5Z KC2016 01 13.35193 07 13 09.60 +21 10 46.3          20.5 RoEB004291
         K16AG5Z  C2016 01 13.35485307 13 09.12 +21 10 51.9          21.3 VtEB004H01
         K16AG5Z  C2016 01 13.36919 07 13 07.12 +21 11 23.7          21.0 VqEB004G96
         K16AG5Z  C2016 01 13.37003 07 13 07.01 +21 11 26.0          21.1 VqEB004G96
         K16AG5Z  C2016 01 13.37088 07 13 06.90 +21 11 27.6          21.1 VqEB004G96
         K16AG5Z  C2016 01 13.37172 07 13 06.77 +21 11 29.5          21.1 VqEB004G96
         K16AG5Z  C2016 01 14.10409107 11 27.14 +21 38 14.9          21.1 VtEB004H01
         K16AG5Z  C2016 01 14.10805907 11 26.58 +21 38 23.7          21.3 VtEB004H01
         K16AG5Z  C2016 01 14.11957607 11 24.96 +21 38 49.3          21.3 VtEB004H01
         K16AG5Z  C2016 01 14.12456907 11 24.28 +21 39 00.3          21.5 VtEB004H01
         K16AG5Z  C2016 01 14.18819 07 11 15.34 +21 41 21.7          20.6 RoEB004926
         K16AG5Z  C2016 01 14.19612 07 11 14.13 +21 41 39.5          22.1 RoEB004926
         K16AG5Z  C2016 01 14.20405 07 11 13.10 +21 41 56.2          20.9 RoEB004926
         K16AG5Z  C2016 01 16.23293 07 06 34.38 +22 55 17.0          21.4 RoEB004926
         K16AG5Z  C2016 01 16.24234 07 06 33.01 +22 55 37.7          21.3 RoEB004926
         K16AG5Z  C2016 01 16.24954 07 06 32.02 +22 55 52.5          21.1 RoEB004926
         K16AG5Z  C2016 01 16.47348 07 06 00.819+23 03 55.35         21.3 wLEB004F51
         K16AG5Z  C2016 01 16.48430 07 05 59.286+23 04 18.24         21.4 wLEB004F51
         K16AG5Z  C2016 01 16.49512 07 05 57.741+23 04 41.34         21.3 wLEB004F51
    
    Observer details:
    291 LPL/Spacewatch II.  Observer R. A. Mastaler.  1.8-m f/2.7 reflector + CCD.
    926 Tenagra II Observatory.  Observers M. Schwartz, P. R. Holvorcem.  Measurer
        M. Schwartz.  0.41-m f/3.75 astrograph + CCD, 0.81-m f/7 Ritchey-Chretien
        + CCD.
    F51 Pan-STARRS 1, Haleakala.  Observers B. Gibson, T. Goggia, N. Primak,
        A. Schultz, M. Willman.  Measurers K. Chambers, S. Chastel, L. Denneau,
        H. Flewelling, M. Huber, E. Lilly, E. Magnier, R. Wainscoat, C. Waters,
        R. Weryk.  1.8-m Ritchey-Chretien + CCD.
    G96 Mt. Lemmon Survey.  Observer J. A. Johnson.  Measurers E. J. Christensen,
        D. C. Fuls, A. R. Gibbs, A. D. Grauer, J. A. Johnson, R. A. Kowalski,
        S. M. Larson, G. J. Leonard, R. G. Matheny, R. L. Seaman, F. C. Shelly.
        1.5-m reflector + CCD.
    H01 Magdalena Ridge Observatory, Socorro.  Observers W. H. Ryan, E. V. Ryan.
        Measurer W. H. Ryan.  2.4-m f/8.9 reflector + CCD.
    
    Orbital elements:
    2016 AZ165                                               Earth MOID = 0.0866 AU
    Epoch 2016 Jan. 13.0 TT = JDT 2457400.5                 MPC
    M 173.22657              (2000.0)            P               Q
    n   0.63844312     Peri.  183.67847     +0.41582337     +0.81229677
    a   1.3357379      Node   111.27544     -0.82279912     +0.52758979
    e   0.1733347      Incl.   26.03322     -0.38741777     -0.24864227
    P   1.54           H   21.0           G   0.15           U   8
    Residuals in seconds of arc
    160113 G96  0.1+  0.1+    160113 H01  0.1-  0.0     160114 926  0.9-  0.5+
    160113 G96  0.4-  0.1-    160113 G96  0.1-  0.1-    160114 926  0.5+  0.3-
    160113 G96  0.1+  0.3-    160113 G96  0.1+  0.3+    160116 926  0.1+  0.0
    160113 G96  0.4+  0.2+    160113 G96  0.2+  0.1+    160116 926  0.3-  0.4+
    160113 H01  0.2+  0.2-    160113 G96  0.1+  0.1+    160116 926  0.2+  0.3-
    160113 H01  0.0   0.1-    160114 H01  0.0   0.2-    160116 F51  0.0   0.0
    160113 H01  0.0   0.0     160114 H01  0.1-  0.2-    160116 F51  0.1+  0.1-
    160113 291  0.2+  0.3-    160114 H01  0.1-  0.1-    160116 F51  0.0   0.0
    160113 291  0.2-  0.3+    160114 H01  0.2+  0.2-
    160113 291  0.1-  0.1+    160114 926  0.2+  0.2+
    
    Ephemeris:
    2016 AZ165               a,e,i = 1.34, 0.17, 26                  q = 1.1042
    Date    TT    R. A. (2000) Decl.     Delta      r     Elong.  Phase     V
    2015 12 17    08 03 07.2 +06 04 50   0.6606  1.5526   140.6    23.7    22.2
    ...
    2016 01 01    07 40 04.6 +13 38 04   0.5941  1.5619   163.4    10.4    21.5
    ...
    2016 01 09    07 23 05.0 +18 29 38   0.5825  1.5650   176.0     2.5    21.1
    ...
    2016 01 15    07 09 23.2 +22 10 54   0.5865  1.5665   172.0     5.0    21.2
    2016 01 16    07 07 06.0 +22 46 57   0.5882  1.5667   170.4     6.0    21.3
    2016 01 17    07 04 49.6 +23 22 37   0.5902  1.5668   168.7     7.0    21.4
    ...
    2016 01 23    06 51 39.4 +26 46 13   0.6082  1.5673   159.0    13.0    21.7
    ...
    2016 01 31    06 36 25.9 +30 41 46   0.6465  1.5667   146.8    20.1    22.0
    ...
    2016 02 15    06 19 15.0 +36 03 47   0.7511  1.5620   127.4    30.2    22.7
    
    A. U. Tomatic                (C) Copyright 2016 MPC           M.P.E.C. 2016-B04
    

    Read MPEC 2016-B03 Read MPEC 2016-B05


    MPEC number:

    Enter an MPEC number in one of the following forms:

    • 1997-B01 (the full form)
    • J97B01 (the packed version of the full form)
    • B01 (the abbreviated form)